Regional Weather Roundup
Issued by NWS

Home | Current Version | Previous Version | Graphics & Text | Print | Product List | Glossary On
Versions: 1 2 3 4 5 6 7 8 9 10 11 12 13 14 15 16 17 18 19 20 21 22 23 24 25 26 27 28 29 30 31 32 33 34 35 36 37 38 39 40 41 42 43 44 45 46 47 48 49 50
000
ASUS43 KLMK 070810
RWRKY
KENTUCKY REGIONAL WEATHER ROUNDUP
NATIONAL WEATHER SERVICE LOUISVILLE KY
300 AM EST WED DEC 07 2016

NOTE "FAIR" INDICATES FEW OR NO CLOUDS BELOW 12,000 FEET
WITH NO SIGNIFICANT WEATHER AND/OR OBSTRUCTIONS TO VISIBILITY.

KYZ001>023-026-027-061>063-070>075-070900-
WESTERN AND SOUTH CENTRAL KENTUCKY

CITY           SKY/WX    TMP DP  RH WIND       PRES   REMARKS
PADUCAH        PTCLDY    37  33  85 NW3       30.13R
HENDERSON      CLOUDY    36  32  87 N3        30.12R
OWENSBORO      CLOUDY    35  33  92 CALM      30.12R
HOPKINSVILLE   CLOUDY    36  34  93 CALM      30.11R
BOWLING GREEN  CLOUDY    38  33  82 CALM      30.11S
GLASGOW        MOCLDY    35  35 100 CALM      30.10F
$$

KYZ024-025-028>034-038-045-046-053-070900-
NORTH CENTRAL KENTUCKY

CITY           SKY/WX    TMP DP  RH WIND       PRES   REMARKS
LOUISVILLE/SDF CLOUDY    36  28  73 NW3       30.11R
LOUISVILLE/LOU PTCLDY    36  29  75 NW3       30.12R
FORT KNOX      CLOUDY    35  31  86 N1        30.08R
$$

KYZ035>037-039>044-047>052-055>060-089>105-070900-
NORTHEAST KENTUCKY

CITY           SKY/WX    TMP DP  RH WIND       PRES   REMARKS
LEXINGTON      CLOUDY    34  29  82 NW3       30.09R
COVINGTON      PTCLDY    32  29  88 SW3       30.07R
FRANKFORT      CLOUDY    36  30  79 W6        30.08S WCI  31
$$

KYZ054-064>069-076>088-106>120-070900-
SOUTHEAST KENTUCKY

CITY           SKY/WX    TMP DP  RH WIND       PRES   REMARKS
JACKSON        CLOUDY    40  34  79 NW8       30.06R WCI  34
LONDON         CLOUDY    41  34  76 CALM      30.06R
SOMERSET       CLOUDY    37  32  81 NW5       30.11R WCI  34
MIDDLESBORO    CLOUDY    43  37  80 N5        30.08R
MONTICELLO     CLOUDY    39  37  92 NW7       30.11R WCI  34
$$




USA.gov is the U.S. government's official web portal to all federal, state and local government web resources and services.